Volver al catálogo

DELTA 1 DEB

ActivoPO
NORAD 21686·DEBRIS·🇺🇸 United States

Lanzado Jun 12, 1975 desde Vandenberg Space Force Base

Loading…

Próximos Pases (próximas 24 horas)

TLE

ActualizadoSource: Space-Track

Época: Sep 14, 2026, 07:35 UTC

1 21686U 75052JN  26257.31613390  .00003692  00000-0  14861-2 0  9992
2 21686  99.9934 294.0272 0137230  55.9612 305.4506 14.23784735767500

Sigue DELTA 1 DEB en tiempo real con AllMySat

Download on the App Store